| time (UTC) | temp C | wind direction | speed KPH | gust KPH | rain 1hr cm | rain 24hr cm | rain mn cm | humidity % | barometer mb |
| 20260508011545 | 21 | 63 | 0.0 | 3.2 | 0.00 | 0.00 | 0.00 | 53 | 1017.4 |
| 20260508010041 | 21 | 0 | 1.6 | 6.4 | 0.00 | 0.00 | 0.00 | 56 | 1017.6 |
| 20260508004542 | 20 | 63 | 1.6 | 6.4 | 0.00 | 0.00 | 0.00 | 57 | 1017.6 |
| 20260508003045 | 20 | 87 | 1.6 | 9.7 | 0.00 | 0.00 | 0.00 | 60 | 1017.7 |
| 20260508001552 | 20 | 0 | 3.2 | 9.7 | 0.00 | 0.00 | 0.00 | 56 | 1017.8 |
| 20260508000048 | 20 | 24 | 3.2 | 14.5 | 0.00 | 0.00 | 0.00 | 56 | 1017.9 |
| 20260507234542 | 20 | 89 | 1.6 | 12.9 | 0.00 | 0.00 | 0.00 | 55 | 1017.9 |
| 20260507233049 | 20 | 19 | 4.8 | 12.9 | 0.00 | 0.00 | 0.00 | 55 | 1018.3 |
| 20260507231547 | 20 | 81 | 3.2 | 11.3 | 0.00 | 0.00 | 0.00 | 54 | 1018.4 |
| 20260507230052 | 20 | 97 | 4.8 | 11.3 | 0.00 | 0.00 | 0.00 | 59 | 1018.7 |
| 20260507224543 | 19 | 360 | 3.2 | 9.7 | 0.00 | 0.00 | 0.00 | 56 | 1018.9 |
| 20260507223048 | 18 | 53 | 4.8 | 9.7 | 0.00 | 0.00 | 0.00 | 58 | 1019.0 |
| 20260507221542 | 18 | 42 | 4.8 | 12.9 | 0.00 | 0.00 | 0.00 | 61 | 1019.2 |
| 20260507220048 | 18 | 40 | 3.2 | 11.3 | 0.00 | 0.00 | 0.00 | 58 | 1019.5 |
| 20260507214549 | 18 | 37 | 3.2 | 11.3 | 0.00 | 0.00 | 0.00 | 58 | 1019.7 |
| 20260507213053 | 17 | 40 | 3.2 | 9.7 | 0.00 | 0.00 | 0.00 | 61 | 1019.8 |
| 20260507211552 | 17 | 84 | 3.2 | 9.7 | 0.00 | 0.00 | 0.00 | 63 | 1019.9 |
| 20260507210043 | 17 | 51 | 4.8 | 14.5 | 0.00 | 0.00 | 0.00 | 60 | 1020.0 |
| 20260507204548 | 17 | 91 | 3.2 | 11.3 | 0.00 | 0.00 | 0.00 | 59 | 1020.2 |
| 20260507203048 | 16 | 119 | 4.8 | 11.3 | 0.00 | 0.00 | 0.00 | 63 | 1020.4 |
| 20260507201548 | 16 | 105 | 3.2 | 11.3 | 0.00 | 0.00 | 0.00 | 61 | 1020.6 |
| 20260507200047 | 16 | 74 | 4.8 | 11.3 | 0.00 | 0.00 | 0.00 | 62 | 1020.8 |
| 20260507194544 | 16 | 120 | 8.0 | 14.5 | 0.00 | 0.00 | 0.00 | 63 | 1020.9 |
| 20260507193044 | 16 | 46 | 3.2 | 12.9 | 0.00 | 0.00 | 0.00 | 64 | 1020.9 |
| 20260507191543 | 15 | 113 | 4.8 | 12.9 | 0.00 | 0.00 | 0.00 | 62 | 1021.1 |
| 20260507190042 | 15 | 175 | 3.2 | 9.7 | 0.00 | 0.00 | 0.00 | 62 | 1021.2 |
| 20260507184547 | 15 | 96 | 4.8 | 12.9 | 0.00 | 0.00 | 0.00 | 61 | 1021.4 |
| 20260507183053 | 15 | 352 | 3.2 | 9.7 | 0.00 | 0.00 | 0.00 | 62 | 1021.5 |
| 20260507181549 | 15 | 0 | 1.6 | 6.4 | 0.00 | 0.00 | 0.00 | 61 | 1021.6 |
| 20260507180053 | 13 | 188 | 0.0 | 8.0 | 0.00 | 0.00 | 0.00 | 61 | 1021.9 |
| 20260507174548 | 13 | 55 | 1.6 | 8.0 | 0.00 | 0.00 | 0.00 | 62 | 1021.9 |
| 20260507173058 | 13 | 46 | 0.0 | 12.9 | 0.00 | 0.00 | 0.00 | 65 | 1022.1 |
| 20260507171552 | 13 | 11 | 4.8 | 11.3 | 0.00 | 0.00 | 0.00 | 69 | 1022.1 |
| 20260507170051 | 12 | 90 | 1.6 | 12.9 | 0.00 | 0.00 | 0.00 | 67 | 1022.0 |
| 20260507164542 | 12 | 33 | 3.2 | 9.7 | 0.00 | 0.00 | 0.00 | 68 | 1022.1 |
| 20260507163047 | 11 | 25 | 4.8 | 11.3 | 0.00 | 0.00 | 0.00 | 72 | 1022.1 |
| 20260507161553 | 11 | 26 | 4.8 | 14.5 | 0.00 | 0.00 | 0.00 | 74 | 1022.1 |
| 20260507160051 | 10 | 24 | 3.2 | 9.7 | 0.00 | 0.00 | 0.00 | 74 | 1022.0 |
| 20260507154547 | 10 | 339 | 6.4 | 16.1 | 0.00 | 0.00 | 0.00 | 73 | 1022.2 |
| 20260507153047 | 10 | 5 | 1.6 | 12.9 | 0.00 | 0.00 | 0.00 | 76 | 1022.3 |
| 20260507151541 | 9 | 352 | 6.4 | 14.5 | 0.00 | 0.00 | 0.00 | 76 | 1022.2 |
| 20260507150043 | 9 | 15 | 3.2 | 8.0 | 0.00 | 0.00 | 0.00 | 78 | 1022.2 |
| 20260507144549 | 8 | 306 | 1.6 | 12.9 | 0.00 | 0.00 | 0.00 | 79 | 1022.1 |
| 20260507143100 | 8 | 311 | 3.2 | 11.3 | 0.00 | 0.00 | 0.00 | 80 | 1022.1 |
| 20260507141549 | 8 | 289 | 3.2 | 11.3 | 0.00 | 0.00 | 0.00 | 80 | 1022.0 |
| 20260507140046 | 8 | 313 | 4.8 | 12.9 | 0.00 | 0.00 | 0.00 | 81 | 1022.0 |
| 20260507134543 | 8 | 293 | 3.2 | 11.3 | 0.00 | 0.00 | 0.00 | 80 | 1021.9 |
| 20260507133051 | 8 | 328 | 3.2 | 6.4 | 0.00 | 0.00 | 0.00 | 81 | 1021.7 |
| 20260507131550 | 8 | 307 | 0.0 | 6.4 | 0.00 | 0.00 | 0.00 | 81 | 1021.7 |
| 20260507130100 | 8 | 0 | 1.6 | 6.4 | 0.00 | 0.00 | 0.00 | 81 | 1021.7 |
| 20260507124555 | 8 | 0 | 0.0 | 4.8 | 0.00 | 0.00 | 0.00 | 82 | 1021.5 |
| 20260507123046 | 8 | 24 | 1.6 | 4.8 | 0.00 | 0.00 | 0.00 | 80 | 1021.6 |
| 20260507121546 | 8 | 345 | 3.2 | 8.0 | 0.00 | 0.00 | 0.00 | 79 | 1021.7 |
| 20260507120042 | 8 | 347 | 0.0 | 11.3 | 0.00 | 0.00 | 0.00 | 79 | 1021.8 |
| 20260507114548 | 9 | 22 | 4.8 | 14.5 | 0.00 | 0.00 | 0.00 | 78 | 1022.0 |
| 20260507113055 | 9 | 350 | 3.2 | 14.5 | 0.00 | 0.00 | 0.00 | 78 | 1022.0 |
| 20260507111544 | 9 | 324 | 3.2 | 9.7 | 0.00 | 0.00 | 0.00 | 77 | 1022.0 |
| 20260507110057 | 10 | 352 | 3.2 | 14.5 | 0.00 | 0.00 | 0.00 | 78 | 1022.1 |
| 20260507104552 | 10 | 9 | 3.2 | 9.7 | 0.00 | 0.00 | 0.00 | 77 | 1022.1 |
| 20260507103114 | 10 | 13 | 1.6 | 12.9 | 0.00 | 0.00 | 0.00 | 77 | 1022.2 |
| 20260507101547 | 10 | 0 | 1.6 | 8.0 | 0.00 | 0.00 | 0.00 | 77 | 1022.4 |
| 20260507100106 | 10 | 360 | 1.6 | 9.7 | 0.00 | 0.00 | 0.00 | 79 | 1022.4 |
| 20260507094549 | 10 | 5 | 4.8 | 11.3 | 0.00 | 0.00 | 0.00 | 78 | 1022.5 |
| 20260507093045 | 10 | 350 | 3.2 | 8.0 | 0.00 | 0.00 | 0.00 | 78 | 1022.5 |
| 20260507091545 | 10 | 346 | 3.2 | 11.3 | 0.00 | 0.00 | 0.00 | 78 | 1022.6 |
| 20260507090048 | 10 | 332 | 3.2 | 11.3 | 0.00 | 0.00 | 0.00 | 78 | 1022.8 |
| 20260507084546 | 10 | 327 | 3.2 | 9.7 | 0.00 | 0.00 | 0.00 | 77 | 1022.8 |
| 20260507083050 | 10 | 352 | 3.2 | 12.9 | 0.00 | 0.00 | 0.00 | 77 | 1022.8 |
| 20260507081552 | 10 | 352 | 3.2 | 11.3 | 0.00 | 0.00 | 0.00 | 78 | 1022.8 |
| 20260507080054 | 10 | 5 | 3.2 | 11.3 | 0.00 | 0.00 | 0.00 | 78 | 1022.8 |
| 20260507074552 | 10 | 294 | 4.8 | 12.9 | 0.00 | 0.00 | 0.00 | 79 | 1022.7 |
| 20260507073044 | 10 | 5 | 3.2 | 9.7 | 0.00 | 0.00 | 0.00 | 79 | 1022.6 |
| 20260507071549 | 10 | 5 | 3.2 | 6.4 | 0.00 | 0.00 | 0.00 | 80 | 1022.5 |
| 20260507064551 | 10 | 35 | 3.2 | 12.9 | 0.00 | 0.00 | 0.00 | 81 | 1022.5 |
| 20260507063047 | 10 | 21 | 3.2 | 6.4 | 0.00 | 0.00 | 0.00 | 83 | 1022.4 |
| 20260507061542 | 10 | 0 | 3.2 | 14.5 | 0.00 | 0.00 | 0.00 | 82 | 1022.4 |
| 20260507060043 | 11 | 352 | 4.8 | 12.9 | 0.00 | 0.00 | 0.00 | 82 | 1022.6 |
| 20260507054605 | 11 | 331 | 4.8 | 14.5 | 0.00 | 0.00 | 0.00 | 82 | 1022.6 |
| 20260507053054 | 11 | 336 | 4.8 | 12.9 | 0.00 | 0.00 | 0.00 | 81 | 1022.5 |
| 20260507051554 | 11 | 46 | 6.4 | 14.5 | 0.00 | 0.00 | 0.00 | 81 | 1022.5 |
| 20260507050050 | 11 | 348 | 1.6 | 9.7 | 0.00 | 0.00 | 0.00 | 81 | 1022.3 |
| 20260507044551 | 12 | 345 | 4.8 | 12.9 | 0.00 | 0.00 | 0.00 | 80 | 1022.4 |
| 20260507043045 | 12 | 352 | 1.6 | 8.0 | 0.00 | 0.00 | 0.00 | 79 | 1022.5 |
| 20260507041558 | 12 | 304 | 3.2 | 11.3 | 0.00 | 0.00 | 0.00 | 79 | 1022.5 |
| 20260507040043 | 13 | 311 | 3.2 | 17.7 | 0.00 | 0.00 | 0.00 | 78 | 1022.2 |
| 20260507034546 | 13 | 0 | 3.2 | 12.9 | 0.00 | 0.00 | 0.00 | 77 | 1022.0 |
| 20260507033043 | 13 | 350 | 1.6 | 6.4 | 0.00 | 0.00 | 0.00 | 77 | 1021.9 |
| 20260507031543 | 13 | 352 | 1.6 | 9.7 | 0.00 | 0.00 | 0.00 | 76 | 1021.7 |
| 20260507030050 | 14 | 309 | 3.2 | 14.5 | 0.00 | 0.00 | 0.00 | 75 | 1021.6 |
| 20260507024551 | 15 | 297 | 4.8 | 9.7 | 0.00 | 0.00 | 0.00 | 73 | 1021.4 |
| 20260507023047 | 16 | 352 | 1.6 | 12.9 | 0.00 | 0.00 | 0.00 | 72 | 1021.4 |
| 20260507021559 | 16 | 289 | 1.6 | 9.7 | 0.00 | 0.00 | 0.00 | 70 | 1021.4 |
| 20260507020106 | 16 | 285 | 4.8 | 14.5 | 0.00 | 0.00 | 0.00 | 69 | 1021.4 |
| 20260507014618 | 17 | 298 | 6.4 | 14.5 | 0.00 | 0.00 | 0.00 | 66 | 1021.4 |
| 20260507013050 | 17 | 293 | 4.8 | 14.5 | 0.00 | 0.00 | 0.00 | 67 | 1021.4 |